SCP
1 1 1 0 0 0 0 0 0 0 0 0 0 0 0 0 0 0 0 0 0 0 0 0 0 1 1 0 0 0 0 0 0 0 1 1 1 1 1 1 1 1 1 1 1 1 1 1 1
1 1 1 0 0 0 0 0 0 0 0 0 0 0 0 0 0 0 0 0 0 0 0 0 0 1 1 0 0 0 0 0 0 0 1 1 1 1 1 1 1 1 1 1 1 1 0 0 0
1 1 1 0 0 0 0 0 0 0 0 0 0 0 0 1 0 0 0 0 0 0 0 0 0 0 0 0 0 0 0 0 0 0 0 1 1 1 1 1 1 1 1 1 1 0 0 0 0
1 1 0 0 0 0 0 0 0 0 0 0 0 0 1 1 1 1 1 1 1 0 0 0 0 0 0 0 0 0 0 0 0 0 0 0 1 1 1 1 1 1 1 1 1 0 0 0 1
1 0 0 0 0 0 0 0 0 0 0 0 0 1 1 1 1 1 1 1 1 1 0 0 1 0 0 0 0 0 0 0 0 0 0 0 0 1 1 1 1 1 1 1 1 0 0 0 0
0 0 0 0 0 0 0 0 0 0 0 0 0 1 1 1 1 1 1 1 1 1 1 1 1 0 0 0 0 0 0 0 0 0 0 0 0 1 1 1 0 0 0 0 1 0 0 0 0
0 0 0 0 0 0 0 0 0 0 0 0 0 0 1 1 1 1 1 1 1 1 0 0 1 1 0 0 0 0 0 0 0 1 1 0 0 0 1 1 0 0 0 0 0 0 0 0 0
0 0 0 0 0 0 0 0 0 0 0 0 0 0 0 0 1 1 1 1 1 1 0 0 1 1 1 1 0 0 0 0 0 0 0 0 0 0 0 0 0 0 0 0 0 0 0 0 0
0 0 0 0 0 0 0 0 0 0 0 0 0 0 0 1 1 1 1 1 1 1 1 1 1 1 1 1 1 0 0 0 0 0 0 0 0 0 0 0 0 0 0 0 0 0 0 0 0
0 0 0 0 0 0 0 0 0 0 0 0 0 1 1 1 1 1 1 2 2 1 1 1 1 1 1 1 1 0 0 0 0 0 0 0 0 0 0 0 0 0 0 0 0 0 0 0 0
0 0 0 0 0 0 0 0 0 0 0 0 0 1 1 1 1 1 1 2 2 2 1 1 1 1 1 1 1 0 0 0 0 0 0 0 0 0 0 0 0 0 0 0 0 0 0 0 0
0 0 0 0 0 0 0 0 0 0 0 0 0 0 1 0 0 0 1 1 2 2 2 2 1 1 1 1 1 1 0 0 0 0 0 0 0 0 0 0 0 0 0 0 0 0 0 0 0
0 0 0 0 0 0 0 0 0 0 0 0 0 0 0 0 0 0 0 1 1 1 2 2 2 2 1 1 1 1 1 0 0 0 0 0 0 0 0 0 0 0 0 0 0 0 0 0 0
0 0 0 0 0 0 0 0 0 0 0 0 0 0 0 0 0 0 0 0 0 0 1 1 1 2 2 2 1 1 1 0 0 0 0 0 0 0 0 0 0 0 0 0 0 0 0 0 0
0 0 0 0 0 0 0 0 0 0 0 0 0 0 0 0 0 0 0 0 0 0 0 0 1 2 2 2 2 1 1 0 0 0 0 0 0 0 0 0 0 0 0 0 0 0 0 0 0
0 0 0 0 0 0 0 0 0 0 0 0 0 0 0 0 0 0 0 0 0 0 0 0 0 1 3 3 3 2 1 1 0 0 0 0 0 0 0 0 0 0 0 0 0 0 0 0 0
0 0 0 0 0 0 0 0 0 0 0 0 0 0 0 0 0 0 0 0 0 0 0 0 0 1 3 3 3 2 1 1 0 0 0 0 0 0 0 0 0 0 0 0 0 0 0 0 0
0 0 0 0 0 0 0 0 0 0 0 0 0 0 0 0 0 0 1 0 0 0 0 0 0 1 2 2 2 1 1 1 0 0 0 0 0 0 0 0 0 0 0 0 0 0 0 0 0
0 0 0 0 0 0 0 0 0 0 0 0 0 0 0 0 0 0 1 1 0 0 0 0 0 0 1 1 1 1 1 0 0 0 0 0 0 0 0 0 0 0 0 0 0 0 0 0 0
0 0 0 0 0 0 0 0 0 0 0 0 0 0 0 0 0 0 1 1 0 0 0 0 0 0 0 0 0 1 1 1 1 1 0 0 0 0 0 0 0 0 0 0 0 0 0 0 0
0 0 0 0 0 0 0 0 0 0 0 0 0 0 0 0 0 0 1 1 1 0 0 0 0 1 1 1 1 1 1 1 1 1 1 1 0 0 0 0 0 0 0 0 0 0 0 0 0
0 0 0 0 0 0 0 0 0 0 0 0 0 0 0 0 0 1 1 1 1 0 0 0 1 1 1 1 1 1 1 1 1 1 1 1 0 0 0 0 0 0 0 0 0 0 0 0 0
0 0 0 0 0 0 0 0 0 0 0 0 0 0 0 0 0 1 1 1 1 1 0 1 1 1 2 2 2 2 2 1 1 1 1 1 0 0 0 0 0 0 0 0 0 0 0 0 0
0 0 0 0 0 0 0 0 0 0 0 0 0 0 0 0 0 1 1 1 1 1 1 1 1 2 2 2 2 2 1 1 1 1 0 0 0 0 0 0 0 0 0 0 0 0 0 0 0
0 0 0 0 0 0 0 0 0 0 0 0 0 0 0 0 0 1 1 1 1 1 2 2 2 2 2 2 1 1 1 1 1 0 0 0 0 0 0 0 0 0 0 0 0 0 0 0 0
0 0 0 0 0 0 0 0 0 0 0 0 0 0 0 0 0 1 1 1 1 2 2 2 2 2 1 1 1 0 0 0 0 0 0 0 0 0 0 0 0 0 0 0 0 0 0 0 0
0 0 0 0 0 0 0 0 0 0 0 0 0 0 0 0 0 0 1 1 1 2 2 2 1 1 1 1 0 0 0 0 0 0 0 0 0 0 0 0 0 0 0 0 0 0 0 0 0
0 0 0 0 0 0 0 0 0 0 0 0 0 0 0 0 0 0 1 1 1 1 1 1 1 1 1 1 0 0 0 0 0 0 0 0 0 0 0 0 0 0 0 0 0 0 0 0 0
0 0 0 0 0 0 0 0 0 0 0 0 0 0 0 0 0 0 1 1 1 1 1 1 1 1 1 1 1 0 0 0 0 0 0 0 0 0 0 0 0 0 0 0 0 0 0 0 0
0 0 0 0 0 0 0 0 0 0 0 0 0 0 0 0 0 0 0 1 1 1 1 1 1 1 1 1 1 0 0 0 0 0 0 0 0 0 1 1 0 0 0 0 0 0 0 0 0
Wind_Speed
0 1 2 3 5 5 2 1 2 2 3 4 6 8 8 6 4 4 1 5 7 6 4 6 9 9 9 9 8 8 9 9 9 10 10 11 11 11 11 10 11 10 10 10 10 10 9 9 8
1 1 3 4 5 3 1 0 3 3 4 5 6 7 7 5 4 5 3 5 7 6 4 6 9 9 9 9 8 8 8 8 9 9 10 10 10 11 10 10 10 10 9 9 9 9 9 8 8
0 1 3 4 3 3 3 1 3 3 3 4 4 5 5 5 4 4 5 8 7 6 4 5 9 9 9 8 8 8 8 8 8 9 10 10 10 10 10 10 10 9 9 9 8 8 8 8 7
2 4 4 4 3 1 4 3 2 3 4 4 6 6 4 3 4 6 9 9 8 6 4 5 9 8 8 8 8 8 9 8 8 8 9 9 9 10 10 9 9 9 8 8 8 7 7 7 7
4 4 4 3 2 1 2 3 2 3 3 4 7 6 4 3 7 9 9 9 8 5 4 5 8 8 8 8 8 8 9 8 8 8 8 9 8 9 9 9 8 8 8 8 8 7 7 7 7
4 4 4 2 1 1 1 1 3 6 5 6 6 5 3 2 6 7 8 8 8 7 5 4 8 8 8 8 8 8 8 8 8 8 8 8 7 7 7 7 7 7 8 8 7 7 7 7 7
4 4 2 2 1 1 1 1 4 5 4 3 5 6 3 2 4 7 7 7 7 6 4 3 3 5 7 8 7 8 7 7 8 8 8 7 7 6 6 6 7 7 7 6 6 6 6 6 7
4 4 2 1 2 0 0 2 3 5 3 3 4 7 5 5 5 6 6 6 6 5 4 3 3 2 2 3 6 7 6 6 7 7 7 6 5 5 5 5 5 6 6 5 4 5 5 6 7
4 5 1 1 2 1 2 4 3 3 6 4 4 4 6 9 8 7 5 4 4 5 3 3 3 2 2 2 4 4 5 5 5 4 6 5 2 2 3 4 5 5 5 5 5 5 5 6 6
4 3 2 2 3 3 3 3 2 4 6 5 5 6 8 8 8 7 6 5 5 5 4 3 3 3 2 2 2 2 2 2 2 2 2 2 1 1 2 3 5 5 5 5 5 5 5 5 3
3 4 2 1 3 4 3 2 2 5 3 4 7 9 9 7 7 7 6 5 5 5 4 4 3 3 3 1 2 1 1 1 1 1 1 1 1 1 2 2 2 3 3 3 4 4 2 2 2
2 2 2 2 2 3 3 3 3 3 4 6 9 11 10 9 7 7 6 5 5 5 5 4 4 3 3 2 2 2 1 1 1 1 1 1 1 1 1 1 1 1 1 2 2 2 3 3 3
2 1 2 3 3 3 4 3 3 2 3 6 8 8 8 7 6 5 5 5 4 4 5 5 5 4 3 3 2 2 2 1 1 1 1 2 1 1 1 1 1 1 1 2 2 2 3 3 3
3 2 1 2 2 3 4 2 2 2 4 6 8 7 7 7 7 5 5 4 4 4 4 4 4 5 4 3 2 2 2 2 2 1 1 2 2 1 2 2 2 2 2 2 2 3 2 2 2
2 2 1 2 3 3 4 2 2 4 6 6 7 7 6 6 6 6 7 6 5 5 4 4 4 4 5 4 3 2 2 2 2 2 1 2 3 3 3 2 2 1 2 2 3 3 3 3 3
2 2 1 4 3 3 5 3 4 4 6 6 6 6 6 5 5 5 5 5 5 4 4 4 5 4 4 4 3 2 2 2 2 2 1 2 3 4 3 2 2 2 2 2 2 2 3 3 3
1 1 2 4 3 3 5 4 4 4 6 6 6 6 5 4 3 3 5 6 5 5 5 4 4 5 4 4 3 3 3 3 2 2 1 2 3 4 3 2 2 2 2 2 2 2 2 2 2
3 2 2 3 3 3 3 4 3 3 5 6 5 5 6 6 5 5 5 5 5 5 5 4 4 4 4 3 3 3 3 2 2 2 2 2 2 3 3 2 3 3 3 3 2 2 2 1 1
3 3 3 5 4 3 4 4 4 3 3 4 4 5 6 6 5 5 5 5 5 5 5 5 5 4 4 2 2 2 2 1 1 1 2 2 3 3 4 3 2 3 2 2 2 2 2 2 2
3 3 3 3 2 3 3 3 4 3 6 7 7 7 7 5 4 4 4 5 5 5 5 5 5 4 4 3 2 2 2 1 1 1 1 2 3 3 3 3 2 2 2 2 2 2 1 1 2
3 4 5 4 2 0 1 4 3 3 2 3 5 6 7 8 8 6 5 5 5 5 5 5 5 5 4 4 3 3 2 2 1 1 1 0 2 3 3 3 2 2 2 1 1 2 2 1 1
4 4 5 4 1 3 2 3 6 3 3 5 5 5 7 7 7 7 7 6 6 6 5 5 5 5 5 5 5 4 3 2 1 1 1 1 1 2 2 3 2 2 2 1 1 1 1 2 1
5 4 3 3 2 1 1 2 7 1 3 5 6 7 7 7 8 8 9 9 7 6 5 5 5 5 5 5 5 5 3 2 1 1 1 1 1 1 2 2 2 1 1 1 1 1 1 1 1
2 2 3 3 3 2 4 4 6 3 5 5 5 6 6 7 7 6 7 6 5 4 4 4 5 4 4 5 5 5 5 3 3 1 2 1 0 0 1 2 2 2 1 2 1 1 1 1 1
3 5 3 3 2 5 3 3 7 5 5 5 7 7 6 6 7 6 6 6 6 6 5 5 6 4 4 5 4 5 5 5 5 3 3 2 1 1 2 2 2 2 2 2 2 1 1 1 1
3 6 6 4 4 4 2 3 5 3 2 3 5 5 6 6 6 7 8 7 7 7 6 6 6 4 4 5 4 4 4 3 3 3 3 3 2 2 2 2 2 2 2 2 1 1 1 1 1
3 3 6 5 2 2 3 3 4 2 2 1 3 5 5 6 7 7 7 7 7 7 7 7 7 5 5 4 4 4 4 3 3 3 2 2 2 2 2 2 2 2 2 2 2 1 1 1 1
5 5 4 3 2 2 3 3 4 3 2 1 3 5 5 6 6 6 6 6 6 7 6 6 6 7 5 5 4 4 4 4 3 3 3 3 3 2 2 2 2 2 2 1 2 1 1 1 1
1 2 3 3 4 4 3 5 4 6 5 5 5 4 5 6 6 6 6 6 6 5 6 5 5 5 4 5 4 4 3 3 3 3 4 4 3 3 3 3 2 2 2 2 2 2 2 2 1
4 5 6 4 3 3 3 6 4 3 3 4 4 3 3 5 6 5 5 5 4 5 5 5 5 5 6 5 5 4 4 3 3 3 4 3 3 3 3 2 2 2 2 2 3 3 2 2 2
Wind_Direction
260 76 87 59 56 55 58 351 114 70 60 51 73 82 86 71 87 126 174 133 125 124 124 112 105 99 93 92 96 95 94 93 95 97 94 91 89 90 89 88 87 85 83 82 80 76 74 71 71
42 42 58 58 77 78 25 31 100 100 134 117 82 82 80 74 84 107 118 134 127 126 127 116 110 102 96 92 93 95 98 100 98 97 97 94 92 91 91 89 88 87 85 84 80 76 75 74 71
76 77 79 68 89 137 143 178 130 121 109 100 88 64 82 109 115 128 151 141 125 123 122 121 113 107 102 97 94 96 99 100 102 100 97 97 96 93 92 89 87 86 86 84 78 76 74 74 72
73 47 55 69 78 140 153 182 161 111 71 72 97 71 62 96 132 136 137 136 126 124 122 123 116 110 105 101 97 100 100 100 100 102 100 98 97 94 92 91 90 88 85 82 77 75 74 72 71
67 72 60 56 63 76 152 178 170 102 81 83 95 93 63 30 109 126 133 135 131 129 128 129 119 114 108 104 100 102 103 100 103 105 102 100 96 95 96 95 93 90 86 82 77 72 71 69 67
58 66 77 72 70 82 88 165 110 92 97 97 95 103 99 114 119 131 135 134 136 137 133 128 122 119 112 107 105 105 102 101 103 107 105 104 100 99 98 96 96 96 91 86 79 71 67 66 65
101 86 105 137 107 72 128 100 102 113 106 107 117 104 123 149 141 134 131 130 132 132 128 122 126 122 121 115 111 110 107 104 104 105 104 103 101 101 100 98 99 101 97 90 81 71 66 65 65
124 97 64 106 126 99 355 78 105 107 103 95 102 127 160 180 147 121 116 116 118 120 123 128 127 115 115 121 117 114 110 105 102 101 98 96 94 93 89 87 92 95 93 85 75 66 62 63 65
89 79 94 171 144 150 80 76 42 71 90 66 71 123 150 147 129 112 108 105 119 123 119 123 128 120 118 116 109 107 107 103 101 95 94 80 52 55 72 74 84 84 79 70 63 58 53 51 56
89 116 201 184 149 137 102 94 105 77 74 73 75 82 117 130 129 130 133 134 139 145 147 144 138 134 129 125 98 83 88 83 77 68 79 73 59 57 73 63 64 63 62 55 51 45 45 42 37
129 160 174 119 133 131 118 93 97 114 111 149 147 144 142 138 143 146 150 153 158 158 155 156 157 150 144 133 113 92 70 70 74 76 85 88 71 44 42 43 31 30 40 36 30 28 35 47 49
116 176 156 150 140 133 141 128 98 126 178 168 159 154 151 153 160 163 161 164 158 152 160 159 157 149 153 144 132 121 106 92 89 87 98 100 94 72 54 55 35 30 34 44 34 40 48 54 61
115 154 141 158 137 127 112 112 131 157 164 140 140 143 152 156 159 163 162 161 153 156 165 163 156 153 152 141 139 125 124 116 113 84 79 102 105 99 88 71 55 37 43 54 54 56 60 55 57
172 169 181 180 182 155 132 123 118 202 150 134 139 150 160 166 163 153 156 164 167 162 163 160 153 150 144 140 138 133 125 114 99 93 91 105 108 108 96 77 65 47 51 56 63 62 59 55 58
128 104 331 256 193 182 123 28 226 201 152 147 157 162 159 165 164 166 172 169 169 164 157 155 149 146 145 143 144 132 122 117 113 107 93 96 104 111 106 92 73 57 66 70 68 54 47 55 56
63 83 270 272 195 187 131 225 251 189 156 166 172 171 168 174 169 164 163 160 159 151 149 154 150 140 143 142 139 124 114 109 104 102 97 97 100 106 104 95 83 71 66 68 73 62 56 45 43
9 193 238 276 230 174 154 210 241 187 166 177 181 179 174 167 171 164 157 157 157 150 144 143 140 138 140 135 125 118 115 103 101 92 84 93 103 103 102 97 91 83 70 61 72 61 69 57 35
222 212 240 244 244 158 177 224 234 214 181 185 183 172 170 174 189 182 167 162 156 148 134 123 121 129 129 114 100 89 81 76 81 88 88 99 104 104 103 96 85 83 76 59 60 69 49 59 29
198 206 241 244 228 167 202 229 239 209 169 187 188 180 180 191 191 174 163 157 146 136 137 132 122 122 122 113 117 113 121 114 75 81 82 94 103 107 107 101 87 84 86 82 77 79 59 30 27
206 225 251 273 242 179 198 243 245 219 200 195 194 190 186 180 169 171 162 148 150 155 154 145 142 143 142 136 140 144 145 147 139 91 87 104 114 113 114 117 115 104 95 75 65 78 70 25 40
230 207 222 231 273 352 104 315 286 263 224 203 202 194 187 180 179 180 167 161 158 161 164 161 156 149 144 128 110 94 74 65 60 66 52 91 125 113 110 120 122 115 111 115 103 102 102 77 6
251 232 217 219 167 260 169 280 281 245 251 228 217 200 196 191 178 176 173 173 175 178 174 159 158 151 145 138 132 134 132 145 198 174 157 133 127 118 118 125 129 131 127 134 146 108 117 116 55
224 226 227 227 176 289 275 190 284 296 256 242 217 203 198 190 179 177 181 183 180 172 167 163 159 150 148 148 149 143 130 146 135 125 138 136 159 145 141 142 146 150 146 151 132 106 112 130 142
200 28 15 45 76 290 241 181 269 246 224 223 207 201 192 185 179 179 181 172 166 156 154 152 156 155 152 149 150 149 148 146 134 141 161 177 216 224 178 164 168 172 173 176 178 163 141 137 130
82 82 27 1 11 252 244 182 245 247 225 195 189 192 185 174 169 173 170 168 164 160 159 157 154 156 159 157 159 161 161 163 168 171 178 173 183 222 226 190 183 182 191 189 176 162 172 171 163
188 144 162 197 221 268 299 227 257 266 246 185 171 167 158 161 168 174 178 176 171 169 167 163 161 158 163 167 173 170 164 166 178 184 185 185 198 215 210 197 199 203 194 184 170 162 197 180 201
168 191 177 154 218 256 278 286 314 352 5 74 139 146 164 170 174 176 178 176 173 171 174 173 169 166 173 173 169 171 172 166 178 195 196 196 204 212 195 191 194 205 191 183 167 177 200 182 220
172 165 111 127 172 245 278 259 237 242 254 213 174 179 185 175 174 175 177 179 177 177 176 173 173 178 180 174 175 176 184 178 181 180 197 206 207 202 184 190 196 197 189 182 171 178 199 172 248
166 154 135 143 168 171 239 265 233 207 200 182 194 197 189 179 178 180 182 182 176 172 171 174 178 175 175 178 182 180 188 187 184 188 201 206 197 188 192 202 201 198 196 191 186 206 198 198 239
182 185 152 163 222 180 188 263 281 205 185 176 191 197 190 181 176 174 172 169 169 173 177 181 185 185 186 185 183 187 191 189 189 204 213 205 197 201 201 199 200 206 209 204 198 212 213 212 227